Location: Albany
(35.0170°S, 117.8920°E)
Time: 09:47:58
(UTC+08:00)

S-56A Canister/Altair - Pass Details

Date: 30 January 2021
Orbit: 632 x 2501 km, 38.9° (Epoch: 25 February)

Event Time Altitude Azimuth Distance (km) Brightness Sun altitude
Rises 18:46:57 0° 248° (WSW) 6,191 15.0 5.0°
Reaches altitude 10° 18:51:18 10° 253° (WSW) 5,171 14.7 4.2°
Maximum altitude 19:04:53 44° 317° (NW) 2,864 10.7 1.5°
Drops below altitude 10° 19:15:39 10° 25° (NNE) 4,117 10.8 -0.5°
Sets 19:18:44 0° 31° (NNE) 4,865 11.1 -1.1°
